TimeMDT,TemperatureF,Dew PointF,Humidity,Sea Level PressureIn,VisibilityMPH,Wind Direction,Wind SpeedMPH,Gust SpeedMPH,PrecipitationIn,Events,Conditions,WindDirDegrees,DateUTC
12:52 AM,66.0,54.0,65,30.01,10.0,ESE,3.5,-,N/A,,Clear,110,2013-09-17 06:52:00
1:52 AM,64.9,55.9,73,30.01,10.0,NW,5.8,-,N/A,,Partly Cloudy,310,2013-09-17 07:52:00
2:52 AM,64.0,55.0,73,30.00,10.0,North,4.6,-,N/A,,Partly Cloudy,350,2013-09-17 08:52:00
3:52 AM,63.0,55.9,78,29.99,10.0,Calm,Calm,-,N/A,,Scattered Clouds,0,2013-09-17 09:52:00
4:52 AM,63.0,55.0,75,29.99,10.0,North,3.5,-,N/A,,Partly Cloudy,350,2013-09-17 10:52:00
5:52 AM,62.1,55.0,78,30.00,10.0,Calm,Calm,-,N/A,,Scattered Clouds,0,2013-09-17 11:52:00
6:27 AM,62.6,55.4,77,30.21,10.0,Calm,Calm,-,N/A,,Scattered Clouds,0,2013-09-17 12:27:00
6:52 AM,63.0,55.0,75,30.01,10.0,NNE,4.6,-,N/A,,Mostly Cloudy,20,2013-09-17 12:52:00
7:52 AM,63.0,55.9,78,30.02,10.0,NNW,3.5,-,N/A,,Scattered Clouds,330,2013-09-17 13:52:00
8:52 AM,66.9,55.9,68,30.02,10.0,Calm,Calm,-,N/A,,Scattered Clouds,0,2013-09-17 14:52:00
9:52 AM,70.0,55.0,59,30.01,10.0,Calm,Calm,-,N/A,,Partly Cloudy,0,2013-09-17 15:52:00
10:52 AM,71.1,55.9,59,30.01,10.0,Variable,5.8,-,N/A,,Scattered Clouds,0,2013-09-17 16:52:00
11:52 AM,73.0,55.9,55,29.98,10.0,SSW,11.5,-,N/A,,Scattered Clouds,210,2013-09-17 17:52:00
12:52 PM,75.0,55.9,51,29.95,10.0,South,8.1,-,N/A,,Scattered Clouds,190,2013-09-17 18:52:00
1:52 PM,77.0,54.0,45,29.91,10.0,South,9.2,-,N/A,,Scattered Clouds,170,2013-09-17 19:52:00
2:52 PM,79.0,54.0,42,29.88,10.0,SSW,12.7,17.3,N/A,,Scattered Clouds,200,2013-09-17 20:52:00
3:52 PM,79.0,51.1,38,29.85,10.0,SSW,10.4,17.3,N/A,,Scattered Clouds,210,2013-09-17 21:52:00
4:52 PM,80.1,51.1,36,29.83,10.0,SSW,11.5,-,N/A,,Scattered Clouds,200,2013-09-17 22:52:00
5:52 PM,78.1,51.1,39,29.84,10.0,SSW,8.1,-,N/A,,Scattered Clouds,210,2013-09-17 23:52:00
6:52 PM,78.1,52.0,40,29.82,10.0,SSW,9.2,-,N/A,,Scattered Clouds,200,2013-09-18 00:52:00
7:52 PM,75.0,54.0,48,29.84,10.0,South,10.4,-,N/A,,Scattered Clouds,190,2013-09-18 01:52:00
8:52 PM,73.0,54.0,51,29.86,10.0,South,11.5,-,N/A,,Scattered Clouds,180,2013-09-18 02:52:00
9:52 PM,69.1,55.9,63,29.87,10.0,East,4.6,-,N/A,,Partly Cloudy,100,2013-09-18 03:52:00
10:52 PM,68.0,55.9,65,29.88,10.0,ESE,4.6,-,N/A,,Scattered Clouds,110,2013-09-18 04:52:00
11:52 PM,68.0,55.9,65,29.86,10.0,SSE,3.5,-,N/A,,Scattered Clouds,160,2013-09-18 05:52:00